Content
SEND FEEDBACK

Daily
Averages
Monthly
Summary
Italy

CATANIA, ITALY


Home > Europe > Italy
Elevation: 56 feet     Latitude: 37 28N     Longitude: 015 03E

WEATHER
 
SELECT A DAY
Number of Records: 296,354;   Date Range: 7/1/96 - 8/10/14
 
SHARE

PRINT THIS DATA

[ ← Previous Day ]
WEATHER ALMANAC - JANUARY 31, 2013
[ Next Day → ]
[ °C ]   °F
Weather ElementAverageHighLow
Temperature49.5 °F62.6 °F (1:20 pm)37.4 °F (3:20 am)
Dewpoint42.7 °F50 °F (1:20 pm)35.6 °F (12:50 am)
Humidity79.2 %93 % (1:20 am)55 % (10:50 am)
Barometer30.14 in30.24 in (9:20 pm)30.09 in (4:20 am)
Wind Speed6.4 mph11.5 mph (12:50 pm)
Weather ElementAverage
Visibility6.2 mi
Wind DirectionSSW (185.9 °)

Weather ElementTotal
Precipitation---
Heating Degree Days15 (Base 65)
Averaged from 46 records on January 31, 2013
WEATHER CONDITIONS BREAKOUT
WIND DIRECTION BREAKOUT
WEATHER BY HOUR - JANUARY 31, 2013
[ °C ]   °F
Local TimeTemperatureDewpointHumidityBarometerVisibilityWind DirectionWind SpeedGust SpeedPrecipitationEventsConditions
12:50 AM39.2 °F35.6 °F87 %30.15 inWest (270°)5.8 mphClear
1:20 AM39.2 °F37.4 °F93 %30.15 inWest (260°)5.8 mphClear
1:50 AM39.2 °F37.4 °F93 %30.15 inSouth (180°)3.5 mphClear
2:20 AM39.2 °F37.4 °F93 %30.12 inSW (230°)4.6 mphClear
2:50 AM39.2 °F37.4 °F93 %30.12 inSW (220°)4.6 mphClear
3:20 AM37.4 °F35.6 °F93 %30.12 inWSW (240°)4.6 mphClear
3:50 AM37.4 °F35.6 °F93 %30.12 inWSW (240°)6.9 mphClear
4:20 AM37.4 °F35.6 °F93 %30.09 inWSW (240°)4.6 mphClear
4:50 AM37.4 °F35.6 °F93 %30.09 inWest (270°)3.5 mphClear
5:20 AM39.2 °F37.4 °F93 %30.09 inWSW (240°)9.2 mphClear
5:50 AM39.2 °F37.4 °F93 %30.09 inWSW (240°)3.5 mphClear
6:20 AM39.2 °F37.4 °F93 %30.09 inWest (260°)4.6 mphClear
6:50 AM41.0 °F37.4 °F87 %30.09 inWSW (250°)3.5 mphClear
7:20 AM39.2 °F37.4 °F93 %30.09 in6.2 miWSW (240°)5.8 mphScattered Clouds
7:50 AM39.2 °F37.4 °F93 %30.09 in6.2 miWest (270°)4.6 mphScattered Clouds
8:20 AM41.0 °F37.4 °F87 %30.09 in6.2 miWest (260°)3.5 mphScattered Clouds
8:50 AM46.4 °F41.0 °F81 %30.09 inWSW (240°)3.5 mphClear
9:20 AM51.8 °F44.6 °F76 %30.09 inWest (270°)3.5 mphClear
9:50 AM57.2 °F44.6 °F63 %30.09 inVariable1.2 mphClear
10:20 AM57.2 °F42.8 °F59 %30.12 inVariable2.3 mphClear
10:50 AM59.0 °F42.8 °F55 %30.12 inEast (90°)6.9 mphClear
11:20 AM59.0 °F44.6 °F59 %30.12 inESE (110°)6.9 mphClear
11:50 AM59.0 °F46.4 °F63 %30.12 inEast (90°)8.1 mphClear
12:20 PM60.8 °F46.4 °F59 %30.12 inEast (90°)10.4 mphClear
12:50 PM60.8 °F48.2 °F63 %30.12 inESE (110°)11.5 mphClear
1:20 PM62.6 °F50.0 °F63 %30.12 inSE (130°)9.2 mphClear
1:50 PM62.6 °F50.0 °F63 %30.12 inSE (130°)8.1 mphClear
2:20 PM62.6 °F46.4 °F55 %30.12 inEast (100°)5.8 mphClear
2:50 PM62.6 °F46.4 °F55 %30.12 inEast (80°)6.9 mphClear
3:20 PM62.6 °F46.4 °F55 %30.12 inENE (70°)11.5 mphClear
3:50 PM60.8 °F48.2 °F63 %30.12 inENE (70°)11.5 mphClear
4:20 PM60.8 °F48.2 °F63 %30.15 inENE (70°)11.5 mphClear
4:50 PM59.0 °F48.2 °F67 %30.15 inENE (60°)9.2 mphClear
5:20 PM57.2 °F48.2 °F72 %30.15 inNE (50°)10.4 mphClear
5:50 PM57.2 °F48.2 °F72 %30.15 inNE (40°)9.2 mphClear
6:50 PM53.6 °F48.2 °F82 %30.18 inSSE (160°)3.5 mphClear
7:20 PM51.8 °F46.4 °F82 %30.21 inWNW (290°)5.8 mphClear
7:50 PM50.0 °F46.4 °F87 %30.21 inWest (270°)5.8 mphClear
8:20 PM50.0 °F46.4 °F87 %30.21 inWest (280°)8.1 mphClear
8:50 PM48.2 °F44.6 °F87 %30.21 inWest (280°)8.1 mphClear
9:20 PM48.2 °F46.4 °F93 %30.24 inWest (260°)5.8 mphClear
9:50 PM48.2 °F44.6 °F87 %30.21 inWest (280°)5.8 mphClear
10:20 PM48.2 °F44.6 °F87 %30.21 inWest (280°)5.8 mphClear
10:50 PM48.2 °F44.6 °F87 %30.24 inWest (270°)4.6 mphClear
11:20 PM44.6 °F42.8 °F93 %30.21 inSW (230°)6.9 mphClear
11:50 PM41.0 °F39.2 °F93 %30.21 inWSW (240°)8.1 mphClear
Hourly data recorded from LICC, located miles away from Catania, Italy







STORIES FROM OUR PARTNERS